| time (UTC) | temp C | wind direction | speed KPH | gust KPH | rain 1hr cm | rain 24hr cm | rain mn cm | humidity % | barometer mb |
| 20260901224648 | 24 | 49 | 6.4 | 12.9 | 0.00 | 0.03 | 0.03 | 52 | 1010.2 |
| 20260901223649 | 24 | 49 | 6.4 | 12.9 | 0.00 | 0.03 | 0.03 | 52 | 1010.2 |
| 20260901222649 | 24 | 221 | 1.6 | 16.1 | 0.00 | 0.03 | 0.03 | 52 | 1010.1 |
| 20260901221648 | 24 | 221 | 1.6 | 16.1 | 0.00 | 0.03 | 0.03 | 52 | 1010.1 |
| 20260901220649 | 24 | 333 | 9.7 | 17.7 | 0.00 | 0.03 | 0.03 | 50 | 1010.0 |
| 20260901215649 | 24 | 333 | 9.7 | 17.7 | 0.00 | 0.03 | 0.03 | 50 | 1010.0 |
| 20260901214649 | 25 | 155 | 8.0 | 22.5 | 0.00 | 0.03 | 0.03 | 46 | 1009.9 |
| 20260901213648 | 25 | 155 | 8.0 | 22.5 | 0.00 | 0.03 | 0.03 | 46 | 1009.9 |
| 20260901212648 | 26 | 194 | 6.4 | 14.5 | 0.00 | 0.03 | 0.03 | 45 | 1009.9 |
| 20260901211648 | 26 | 194 | 6.4 | 14.5 | 0.00 | 0.03 | 0.03 | 45 | 1009.9 |
| 20260901210648 | 26 | 209 | 11.3 | 19.3 | 0.00 | 0.03 | 0.03 | 46 | 1010.0 |
| 20260901205649 | 26 | 209 | 11.3 | 19.3 | 0.00 | 0.03 | 0.03 | 46 | 1010.0 |
| 20260901204647 | 26 | 213 | 6.4 | 20.9 | 0.00 | 0.03 | 0.03 | 45 | 1010.0 |
| 20260901203648 | 26 | 213 | 6.4 | 20.9 | 0.00 | 0.03 | 0.03 | 45 | 1010.0 |
| 20260901202649 | 25 | 216 | 4.8 | 17.7 | 0.00 | 0.03 | 0.03 | 49 | 1010.1 |
| 20260901201648 | 26 | 207 | 8.0 | 14.5 | 0.00 | 0.03 | 0.03 | 47 | 1010.1 |
| 20260901200648 | 26 | 207 | 8.0 | 14.5 | 0.00 | 0.03 | 0.03 | 47 | 1010.1 |
| 20260901195648 | 25 | 249 | 3.2 | 16.1 | 0.00 | 0.03 | 0.03 | 51 | 1010.2 |
| 20260901194652 | 25 | 249 | 3.2 | 16.1 | 0.00 | 0.03 | 0.03 | 51 | 1010.2 |
| 20260901193648 | 25 | 221 | 9.7 | 17.7 | 0.00 | 0.03 | 0.03 | 46 | 1010.1 |
| 20260901192648 | 25 | 221 | 9.7 | 17.7 | 0.00 | 0.03 | 0.03 | 46 | 1010.1 |
| 20260901191652 | 26 | 196 | 4.8 | 19.3 | 0.00 | 0.03 | 0.03 | 48 | 1010.4 |
| 20260901190649 | 26 | 196 | 4.8 | 19.3 | 0.00 | 0.03 | 0.03 | 48 | 1010.4 |
| 20260901185648 | 26 | 194 | 3.2 | 20.9 | 0.00 | 0.03 | 0.03 | 46 | 1010.5 |
| 20260901184650 | 26 | 194 | 3.2 | 20.9 | 0.00 | 0.03 | 0.03 | 46 | 1010.5 |
| 20260901183650 | 25 | 192 | 4.8 | 16.1 | 0.00 | 0.03 | 0.03 | 49 | 1010.6 |
| 20260901181649 | 25 | 215 | 8.0 | 19.3 | 0.00 | 0.03 | 0.03 | 49 | 1010.7 |
| 20260901180650 | 25 | 215 | 8.0 | 19.3 | 0.00 | 0.03 | 0.03 | 49 | 1010.7 |
| 20260901175649 | 25 | 71 | 6.4 | 16.1 | 0.00 | 0.03 | 0.03 | 51 | 1010.9 |
| 20260901174649 | 25 | 71 | 6.4 | 16.1 | 0.00 | 0.03 | 0.03 | 51 | 1010.9 |
| 20260901173649 | 24 | 55 | 1.6 | 19.3 | 0.00 | 0.03 | 0.03 | 52 | 1010.8 |
| 20260901172649 | 24 | 55 | 1.6 | 19.3 | 0.00 | 0.03 | 0.03 | 52 | 1010.8 |
| 20260901171648 | 24 | 327 | 3.2 | 24.1 | 0.00 | 0.03 | 0.03 | 53 | 1010.9 |
| 20260901170648 | 23 | 219 | 3.2 | 24.1 | 0.00 | 0.03 | 0.03 | 55 | 1011.2 |
| 20260901165649 | 23 | 219 | 3.2 | 24.1 | 0.00 | 0.03 | 0.03 | 55 | 1011.2 |
| 20260901164649 | 23 | 162 | 3.2 | 14.5 | 0.00 | 0.03 | 0.03 | 56 | 1011.4 |
| 20260901163648 | 23 | 162 | 3.2 | 14.5 | 0.00 | 0.03 | 0.03 | 56 | 1011.4 |
| 20260901162649 | 23 | 217 | 6.4 | 22.5 | 0.00 | 0.03 | 0.03 | 59 | 1011.6 |
| 20260901161624 | 23 | 217 | 6.4 | 22.5 | 0.00 | 0.03 | 0.03 | 59 | 1011.6 |
| 20260901160626 | 22 | 197 | 3.2 | 22.5 | 0.00 | 0.03 | 0.03 | 61 | 1011.6 |
| 20260901155626 | 22 | 197 | 3.2 | 22.5 | 0.00 | 0.03 | 0.03 | 61 | 1011.6 |
| 20260901154625 | 22 | 304 | 3.2 | 16.1 | 0.03 | 0.03 | 0.03 | 64 | 1011.5 |
| 20260901153626 | 22 | 304 | 3.2 | 16.1 | 0.03 | 0.03 | 0.03 | 64 | 1011.5 |
| 20260901152625 | 21 | 201 | 4.8 | 11.3 | 0.03 | 0.03 | 0.03 | 68 | 1011.6 |
| 20260901151626 | 21 | 201 | 4.8 | 11.3 | 0.03 | 0.03 | 0.03 | 68 | 1011.6 |
| 20260901140626 | 17 | 81 | 0.0 | 6.4 | 0.00 | 0.00 | 0.00 | 78 | 1011.4 |
| 20260901135626 | 17 | 265 | 0.0 | 1.6 | 0.00 | 0.00 | 0.00 | 81 | 1011.6 |
| 20260901134626 | 17 | 265 | 0.0 | 1.6 | 0.00 | 0.00 | 0.00 | 81 | 1011.6 |
| 20260901133627 | 16 | 292 | 0.0 | 6.4 | 0.00 | 0.00 | 0.00 | 86 | 1011.6 |
| 20260901132626 | 16 | 292 | 0.0 | 6.4 | 0.00 | 0.00 | 0.00 | 86 | 1011.6 |
| 20260901131627 | 15 | 284 | 0.0 | 1.6 | 0.00 | 0.00 | 0.00 | 89 | 1011.6 |
| 20260901130626 | 15 | 284 | 0.0 | 1.6 | 0.00 | 0.00 | 0.00 | 89 | 1011.6 |
| 20260901125625 | 14 | 275 | 0.0 | 0.0 | 0.00 | 0.00 | 0.00 | 90 | 1011.5 |
| 20260901124626 | 14 | 275 | 0.0 | 0.0 | 0.00 | 0.00 | 0.00 | 90 | 1011.5 |
| 20260901123626 | 13 | 275 | 0.0 | 1.6 | 0.00 | 0.00 | 0.00 | 91 | 1011.2 |
| 20260901122626 | 13 | 275 | 0.0 | 1.6 | 0.00 | 0.00 | 0.00 | 91 | 1011.2 |
| 20260901121629 | 13 | 286 | 0.0 | 3.2 | 0.00 | 0.00 | 0.00 | 90 | 1011.0 |
| 20260901120630 | 13 | 286 | 0.0 | 3.2 | 0.00 | 0.00 | 0.00 | 90 | 1011.0 |
| 20260901115625 | 14 | 326 | 0.0 | 1.6 | 0.00 | 0.00 | 0.00 | 89 | 1011.0 |
| 20260901114627 | 14 | 326 | 0.0 | 1.6 | 0.00 | 0.00 | 0.00 | 89 | 1011.0 |
| 20260901113630 | 14 | 277 | 0.0 | 1.6 | 0.00 | 0.00 | 0.00 | 88 | 1010.9 |
| 20260901112626 | 14 | 277 | 0.0 | 1.6 | 0.00 | 0.00 | 0.00 | 88 | 1010.9 |
| 20260901111627 | 15 | 300 | 0.0 | 0.0 | 0.00 | 0.00 | 0.00 | 86 | 1010.7 |
| 20260901110627 | 15 | 300 | 0.0 | 0.0 | 0.00 | 0.00 | 0.00 | 86 | 1010.7 |
| 20260901105627 | 15 | 269 | 0.0 | 3.2 | 0.00 | 0.00 | 0.00 | 85 | 1010.7 |
| 20260901104626 | 15 | 279 | 1.6 | 8.0 | 0.00 | 0.00 | 0.00 | 83 | 1010.6 |
| 20260901103626 | 15 | 279 | 1.6 | 8.0 | 0.00 | 0.00 | 0.00 | 83 | 1010.6 |
| 20260901102626 | 15 | 259 | 0.0 | 3.2 | 0.00 | 0.00 | 0.00 | 82 | 1010.5 |
| 20260901101627 | 15 | 259 | 0.0 | 3.2 | 0.00 | 0.00 | 0.00 | 82 | 1010.5 |
| 20260901100626 | 16 | 284 | 0.0 | 1.6 | 0.00 | 0.00 | 0.00 | 81 | 1010.5 |
| 20260901094628 | 16 | 277 | 0.0 | 1.6 | 0.00 | 0.00 | 0.00 | 80 | 1010.4 |
| 20260901093627 | 16 | 277 | 0.0 | 1.6 | 0.00 | 0.00 | 0.00 | 80 | 1010.4 |
| 20260901092627 | 17 | 281 | 0.0 | 3.2 | 0.00 | 0.00 | 0.00 | 78 | 1010.3 |
| 20260901091627 | 17 | 281 | 0.0 | 3.2 | 0.00 | 0.00 | 0.00 | 78 | 1010.3 |
| 20260901090627 | 17 | 219 | 0.0 | 6.4 | 0.00 | 0.00 | 0.00 | 77 | 1010.4 |
| 20260901085627 | 17 | 219 | 0.0 | 6.4 | 0.00 | 0.00 | 0.00 | 77 | 1010.4 |
| 20260901084627 | 17 | 271 | 0.0 | 11.3 | 0.00 | 0.00 | 0.00 | 79 | 1010.6 |
| 20260901083631 | 17 | 271 | 0.0 | 11.3 | 0.00 | 0.00 | 0.00 | 79 | 1010.6 |
| 20260901082627 | 18 | 267 | 0.0 | 9.7 | 0.00 | 0.00 | 0.00 | 78 | 1010.7 |
| 20260901081629 | 18 | 267 | 0.0 | 9.7 | 0.00 | 0.00 | 0.00 | 78 | 1010.7 |
| 20260901071637 | 16 | 284 | 0.0 | 0.0 | 0.00 | 0.00 | 0.00 | 87 | 1010.9 |
| 20260901070628 | 16 | 284 | 0.0 | 0.0 | 0.00 | 0.00 | 0.00 | 87 | 1010.9 |
| 20260901065630 | 16 | 284 | 0.0 | 1.6 | 0.00 | 0.00 | 0.00 | 88 | 1011.0 |
| 20260901064630 | 16 | 284 | 0.0 | 1.6 | 0.00 | 0.00 | 0.00 | 88 | 1011.0 |
| 20260901055629 | 16 | 57 | 0.0 | 1.6 | 0.00 | 0.00 | 0.00 | 88 | 1010.8 |
| 20260901054628 | 16 | 57 | 0.0 | 1.6 | 0.00 | 0.00 | 0.00 | 88 | 1010.8 |
| 20260901040629 | 17 | 247 | 0.0 | 0.0 | 0.00 | 0.00 | 0.00 | 87 | 1010.7 |
| 20260901035628 | 17 | 247 | 0.0 | 0.0 | 0.00 | 0.00 | 0.00 | 87 | 1010.7 |
| 20260901034630 | 16 | 256 | 0.0 | 0.0 | 0.00 | 0.00 | 0.00 | 88 | 1010.7 |
| 20260901033629 | 16 | 256 | 0.0 | 0.0 | 0.00 | 0.00 | 0.00 | 88 | 1010.7 |
| 20260901032630 | 16 | 256 | 0.0 | 0.0 | 0.00 | 0.00 | 0.00 | 89 | 1010.7 |
| 20260901031628 | 16 | 256 | 0.0 | 0.0 | 0.00 | 0.00 | 0.00 | 89 | 1010.7 |
| 20260901030629 | 16 | 256 | 0.0 | 0.0 | 0.00 | 0.00 | 0.00 | 91 | 1010.7 |
| 20260901025630 | 16 | 256 | 0.0 | 0.0 | 0.00 | 0.00 | 0.00 | 91 | 1010.7 |
| 20260901022630 | 16 | 256 | 0.0 | 0.0 | 0.00 | 0.00 | 0.00 | 92 | 1010.6 |
| 20260901021630 | 16 | 256 | 0.0 | 0.0 | 0.00 | 0.00 | 0.00 | 92 | 1010.6 |
| 20260901001531 | 22 | 257 | 0.0 | 0.0 | 0.00 | 0.00 | 0.00 | 71 | 1009.5 |
| 20260901000530 | 22 | 257 | 0.0 | 0.0 | 0.00 | 0.00 | 0.00 | 71 | 1009.5 |
| 20260831235530 | 23 | 257 | 0.0 | 1.6 | 0.00 | 0.00 | 0.00 | 68 | 1009.6 |
| 20260831234531 | 23 | 257 | 0.0 | 1.6 | 0.00 | 0.00 | 0.00 | 68 | 1009.6 |